Regional Weather Roundup
Issued by NWS

Home | Current Version | Previous Version | Text Only | Print | Product List | Glossary Off
Versions: 1 2 3 4 5 6 7 8 9 10 11 12 13 14 15 16 17 18 19 20 21 22 23 24 25 26 27 28 29 30 31 32 33 34 35 36 37 38 39 40 41 42 43 44 45 46 47 48 49 50

000
ASUS43 KTOP 281059
RWRKS

WEATHER ROUNDUP FOR KANSAS
NATIONAL WEATHER SERVICE GOODLAND KS
500 AM CST WED JAN 28 2015

NOTE:  "FAIR" INDICATES FEW OR NO CLOUDS BELOW 12,000 FEET WITH NO
SIGNIFICANT WEATHER AND/OR OBSTRUCTIONS TO VISIBILITY.

KSZ001>006-013>018-027>032-041>047-281200-
NORTHWEST KANSAS

CITY           SKY/WX    TMP DP  RH WIND       PRES   REMARKS
GOODLAND       MOCLDY    38  30  73 NW14      29.87R WCI  30
HAYS           CLEAR     43  28  56 SW9       29.84F
HILL CITY      CLEAR     39  29  67 W7        29.82F
RUSSELL        CLEAR     39  32  76 S12       29.81F WCI  32
$$

KSZ061>065-074>080-084>089-281200-
SOUTHWEST KANSAS

CITY           SKY/WX    TMP DP  RH WIND       PRES   REMARKS
DODGE CITY     CLEAR     46  33  60 SW12      29.87F
ELKHART          N/A     46  32  58 W12         N/A
GARDEN CITY    PTCLDY    37  33  85 S10       29.86F WCI  30
LIBERAL        PTCLDY    41  32  70 SW9       29.91F
$$

KSZ066>073-081>083-090>101-281200-
SOUTHEAST KANSAS

CITY           SKY/WX    TMP DP  RH WIND       PRES   REMARKS
CHANUTE        CLEAR     42  34  73 S8        29.98S
COFFEYVILLE    CLEAR     44  35  70 S9        29.99F
HUTCHINSON     CLEAR     37  30  75 SE6       29.90F
MEDICINE LODGE   N/A     46  34  62 SE6       29.90F
NEWTON         CLEAR     48  32  53 S14       29.92F
PARSONS        CLEAR     46  35  65 S5        30.00S
WICHITA INTL   CLEAR     40  33  76 S6        29.92F
WICHITA JABRA  CLEAR     46  36  68 S10       29.92F
WINFIELD       CLEAR     50  31  48 S10       29.96F
$$

KSZ007>012-019>026-033>040-048>060-102>105-281200-
NORTHEAST KANSAS

CITY           SKY/WX    TMP DP  RH WIND       PRES   REMARKS
CONCORDIA      CLEAR     35  31  85 E3        29.84F
EMPORIA        CLEAR     40  33  76 S15       29.91F WCI  32
LAWRENCE       CLEAR     35  28  75 SE8       29.94F
MANHATTAN      CLEAR     34  31  88 CALM      29.89F
OLATHE IND     CLEAR     42  30  62 S13       29.95F
OLATHE EXE     CLEAR     40  30  67 S13       29.95F WCI  32
SALINA         CLEAR     42  33  70 S9        29.86F
TOPEKA BILLARD CLEAR     36  28  73 SE5       29.93F
TOPEKA FORBES  CLEAR     41  30  65 S9        29.92F
$$



USA.gov is the U.S. government's official web portal to all federal, state and local government web resources and services.